This is the latest recevied weather packets stored in our database for station/object KN6ZYR. If no packets are shown the sender has not sent any weather packets the latest 10 day(s).
| Time | Temp. | Humidity | Pressure | Rain* | Wind** | Luminosity | Snow |
|---|---|---|---|---|---|---|---|
| 1777221236 | 11.67° C | 63% | 1010.9 hPa | 0 mm | - | 521 W/m² | - |
| 1777220932 | 11.11° C | 66% | 1011.1 hPa | 0 mm | - | 439 W/m² | - |
| 1777220628 | 10.56° C | 68% | 1010.7 hPa | 0 mm | - | 435 W/m² | - |
| 1777220325 | 10.56° C | 68% | 1010.8 hPa | 0 mm | - | 211 W/m² | - |
| 1777220018 | 10.56° C | 71% | 1010.8 hPa | 0 mm | - | 260 W/m² | - |
| 1777219716 | 10.56° C | 70% | 1010.9 hPa | 0 mm | - | 251 W/m² | - |
| 1777219413 | 10.56° C | 71% | 1010.7 hPa | 0 mm | - | 394 W/m² | - |
| 1777219109 | 10.56° C | 70% | 1010.6 hPa | 0 mm | - | 262 W/m² | - |
| 1777218805 | 10° C | 69% | 1010.8 hPa | 0 mm | - | 217 W/m² | - |
| 1777218501 | 10.56° C | 68% | 1011.1 hPa | 0 mm | - | 293 W/m² | - |
| 1777218196 | 10.56° C | 69% | 1010.8 hPa | 0 mm | - | 315 W/m² | - |
| 1777217893 | 10° C | 74% | 1010.7 hPa | 0 mm | - | 326 W/m² | - |
| 1777217588 | 9.44° C | 72% | 1010.5 hPa | 0 mm | - | 231 W/m² | - |
| 1777217285 | 9.44° C | 72% | 1010.9 hPa | 0 mm | - | 219 W/m² | - |
| 1777216981 | 8.89° C | 73% | 1010.6 hPa | 0 mm | - | 197 W/m² | - |
| 1777216678 | 8.89° C | 74% | 1010.7 hPa | 0 mm | - | 215 W/m² | - |
| 1777216374 | 9.44° C | 75% | 1010.7 hPa | 0 mm | - | 246 W/m² | - |
| 1777216073 | 8.89° C | 78% | 1010.8 hPa | 0 mm | - | 241 W/m² | - |
| 1777215768 | 8.33° C | 78% | 1010.6 hPa | 0 mm | - | 197 W/m² | - |
| 1777215464 | 8.33° C | 78% | 1010.7 hPa | 0 mm | - | 195 W/m² | - |
| 1777215161 | 8.33° C | 78% | 1010.3 hPa | 0 mm | - | 224 W/m² | - |
| 1777214856 | 8.33° C | 78% | 1010.4 hPa | 0 mm | - | 214 W/m² | - |
| 1777214555 | 8.33° C | 80% | 1010.1 hPa | 0 mm | - | 205 W/m² | - |
* Rain latest hour (hover to see other rain measurements)
** Current wind speed in m/s (hover to see current wind gust speed)